GW4541 Weather Reports


time (UTC)temp
F
wind
direction
speed
knots
gust
knots
rain 1hr
in
rain 24hr
in
rain mn
in
humidity
%
barometer
mb
20260506231055 46 67 1.7 3.5 0.01 1.17 0.01 99 1009.8
20260506230055 46 50 0.9 5.2 0.00 1.18 0.00 99 1009.8
20260506225055 46 37 1.7 5.2 0.00 1.19 0.00 99 1009.9
20260506224055 46 19 1.7 3.5 0.00 1.21 0.00 99 1009.7
20260506223057 46 28 2.6 5.2 0.01 1.22 0.00 99 1009.8
20260506221055 46 5 0.0 2.6 0.01 1.24 0.00 99 1009.4
20260506220055 46 338 0.0 3.5 0.01 1.24 0.00 99 1009.4
20260506215055 46 339 0.9 3.5 0.01 1.24 1.24 99 1009.4
20260506213055 46 339 0.0 2.6 0.00 1.23 1.23 99 1009.4
20260506212055 46 40 0.0 2.6 0.00 1.23 1.23 99 1009.4
20260506211056 46 44 0.0 1.7 0.00 1.24 1.23 99 1009.2
20260506210055 46 351 0.0 1.7 0.00 1.24 1.23 99 1009.2
20260506205055 46 332 0.9 1.7 0.00 1.24 1.23 99 1009.1
20260506203055 46 28 0.0 5.2 0.00 1.24 1.23 99 1009.1
20260506202054 46 66 1.7 2.6 0.00 1.24 1.23 99 1009.1
20260506201055 46 354 0.9 2.6 0.00 1.24 1.23 99 1008.8
20260506200055 46 39 0.0 2.6 0.00 1.24 1.23 99 1008.8
20260506195055 46 349 0.0 5.2 0.00 1.24 1.23 99 1009.0
20260506193055 46 312 1.7 6.1 0.00 1.24 1.23 99 1008.6
20260506191055 46 9 1.7 2.6 0.00 1.24 1.23 99 1008.4
20260506190055 46 60 0.9 5.2 0.00 1.24 1.23 99 1008.3
20260506185055 46 356 0.9 6.1 0.00 1.24 1.23 99 1008.3
20260506184055 46 35 0.9 2.6 0.00 1.24 1.23 99 1008.0
20260506183055 46 56 1.7 6.1 0.00 1.24 1.23 99 1008.1
20260506181055 46 344 0.0 5.2 0.00 1.24 1.23 99 1008.1
20260506180055 46 75 0.9 5.2 0.00 1.24 1.23 99 1007.7
20260506175055 46 7 0.0 3.5 0.00 1.24 1.23 99 1007.6
20260506174055 46 7 0.9 5.2 0.00 1.24 1.23 99 1007.6
20260506173055 46 24 1.7 7.0 0.01 1.24 1.23 99 1007.6
20260506172055 46 38 0.9 3.5 0.01 1.24 1.23 99 1007.3
20260506171055 46 75 0.9 2.6 0.01 1.24 1.23 99 1007.4
20260506170055 46 31 1.7 5.2 0.02 1.24 1.23 99 1007.4
20260506164055 46 8 0.9 6.1 0.03 1.24 1.23 99 1007.4
20260506163055 47 320 2.6 7.0 0.03 1.23 1.22 99 1007.3
20260506162055 47 7 1.7 3.5 0.04 1.23 1.22 99 1007.1
20260506161055 47 28 0.9 7.0 0.05 1.23 1.22 99 1007.1
20260506155055 47 17 0.0 6.1 0.06 1.22 1.21 99 1007.3
20260506154055 47 37 2.6 7.0 0.07 1.21 1.20 99 1007.1
20260506153055 47 26 0.0 6.1 0.07 1.20 1.19 99 1007.0
20260506152055 48 59 0.9 8.7 0.07 1.19 1.18 99 1007.0
20260506151055 48 36 3.5 3.5 0.07 1.18 1.17 99 1007.2
20260506150055 47 29 0.9 7.0 0.06 1.16 1.15 99 1007.1
20260506145054 47 77 0.0 7.8 0.06 1.15 1.15 99 1007.0
20260506143055 47 156 0.0 7.0 0.06 1.13 1.12 99 1007.1
20260506142055 47 296 1.7 6.1 0.05 1.12 1.11 99 1006.8
20260506141055 47 19 0.9 3.5 0.05 1.11 1.10 99 1006.9
20260506140055 47 22 3.5 3.5 0.04 1.10 1.09 99 1006.9
20260506135055 47 31 0.9 5.2 0.04 1.09 1.08 99 1006.8
20260506134055 47 72 0.0 3.5 0.03 1.08 1.07 99 1007.0
20260506132056 47 117 0.9 6.1 0.03 1.07 1.06 99 1006.8
20260506131054 47 344 1.7 3.5 0.02 1.06 1.05 99 1006.8
20260506130055 47 38 0.0 2.6 0.03 1.06 1.05 99 1006.7
20260506125055 47 44 0.0 3.5 0.02 1.05 1.04 99 1006.8
20260506123054 47 2 1.7 5.2 0.03 1.05 1.04 99 1006.7
20260506122055 46 87 0.0 6.1 0.02 1.04 1.03 99 1006.5
20260506121055 46 53 0.0 3.5 0.03 1.04 1.03 99 1006.5
20260506120055 46 46 0.0 3.5 0.02 1.03 1.02 99 1006.3
20260506115054 46 94 0.0 1.7 0.03 1.03 1.02 99 1006.2
20260506113055 46 139 0.9 6.1 0.03 1.02 1.01 99 1006.4
20260506112055 46 31 0.0 6.1 0.04 1.02 1.01 99 1006.2
20260506110055 45 176 0.0 5.2 0.04 1.01 1.00 99 1006.4
20260506105054 46 53 0.9 6.1 0.04 1.00 1.00 99 1006.4
20260506104055 45 346 0.9 3.5 0.05 1.00 0.99 99 1006.2
20260506103055 45 330 1.7 3.5 0.05 0.99 0.98 99 1006.1
20260506102054 45 103 1.7 5.2 0.05 0.98 0.98 99 1006.1
20260506101055 45 335 3.5 3.5 0.05 0.98 0.97 99 1006.0
20260506100054 45 27 1.7 6.1 0.04 0.97 0.96 99 1006.2
20260506095055 45 27 0.9 5.2 0.03 0.96 0.95 99 1006.1
20260506093055 44 58 0.0 3.5 0.01 0.94 0.93 99 1005.7
20260506092054 45 48 0.9 3.5 0.00 0.93 0.92 99 1005.7
20260506091055 44 91 0.0 3.5 0.01 0.93 0.92 99 1005.7
20260506085055 44 78 0.0 5.2 0.01 0.93 0.92 99 1005.5
20260506084054 44 56 1.7 5.2 0.01 0.93 0.92 99 1005.6
20260506083055 44 131 2.6 3.5 0.02 0.93 0.92 99 1005.6
20260506082055 44 11 1.7 7.8 0.03 0.93 0.92 99 1005.4
20260506081055 44 16 1.7 6.1 0.02 0.92 0.91 99 1005.3
20260506073055 44 322 0.9 6.1 0.05 0.91 0.90 99 1005.3
20260506072055 44 117 0.9 6.1 0.05 0.90 0.89 99 1005.3
20260506062055 47 30 1.7 3.5 0.11 0.85 0.84 99 1005.1
20260506061055 47 0 1.7 6.1 0.10 0.83 0.83 99 1004.6
20260506051056 47 13 0.0 1.7 0.07 0.73 0.72 99 1004.6
20260506045055 47 70 0.0 2.6 0.08 0.71 0.70 99 1004.8
20260506044056 47 56 0.0 3.5 0.08 0.69 0.68 99 1004.6
20260506043054 47 20 0.9 3.5 0.10 0.68 0.67 99 1004.8
20260506042055 47 46 0.0 1.7 0.11 0.67 0.66 99 1004.7
20260506041055 47 354 0.0 3.5 0.13 0.66 0.65 99 1004.7
20260506040055 47 68 0.0 2.6 0.15 0.65 0.64 99 1004.7
20260506034055 47 45 0.0 2.6 0.17 0.61 0.60 99 1004.8
20260506033055 48 84 1.7 5.2 0.17 0.58 0.57 99 1004.7
20260506032055 48 64 0.0 5.2 0.16 0.56 0.55 99 1004.8
20260506031055 48 42 0.9 3.5 0.16 0.53 0.52 99 1005.1
20260506030055 48 28 1.7 5.2 0.15 0.50 0.49 99 1005.1
20260506025055 48 356 0.0 1.7 0.14 0.48 0.47 99 1005.1
20260506023055 49 28 1.7 2.6 0.10 0.41 0.41 99 1005.3
20260506022054 49 7 0.0 2.6 0.09 0.39 0.38 99 1005.3
20260506021055 49 31 0.0 2.6 0.09 0.37 0.36 99 1005.4
20260506015055 49 46 0.0 2.6 0.09 0.34 0.33 99 1005.5
20260506014055 49 56 0.0 2.6 0.11 0.33 0.32 99 1005.7
20260506013055 49 97 0.0 3.5 0.12 0.31 0.30 99 1005.7
20260506012055 49 8 0.0 2.6 0.12 0.31 0.29 99 1005.7
20260506011055 49 120 0.0 2.6 0.12 0.29 0.27 99 1005.8
20260506010055 50 25 0.0 3.5 0.12 0.28 0.26 99 1005.8
20260506005055 50 30 0.9 2.6 0.11 0.26 0.24 99 1005.9
20260506004055 50 77 0.0 2.6 0.10 0.23 0.21 99 1005.9
20260506003055 50 80 0.0 1.7 0.08 0.20 0.18 99 1005.9
20260506002055 50 93 0.0 1.7 0.08 0.19 0.17 99 1006.2
20260506000055 50 63 0.0 5.2 0.08 0.16 0.14 99 1006.1
20260505235055 50 140 1.7 2.6 0.08 0.16 0.13 99 1006.4
20260505234054 50 67 1.7 5.2 0.08 0.14 0.11 99 1006.5
20260505233054 50 105 0.9 3.5 0.08 0.13 0.10 99 1006.4